Regional Weather Roundup
Issued by NWS

Home | Current Version | Previous Version | Text Only | Print | Product List | Glossary On
Versions: 1 2 3 4 5 6 7 8 9 10 11 12 13 14 15 16 17 18 19 20 21 22 23 24 25 26 27 28 29 30 31 32 33 34 35 36 37 38 39 40 41 42 43 44 45 46 47 48 49 50
000
ASHW40 PHFO 061143
RWRHI

WEATHER ROUNDUP FOR HAWAII
NATIONAL WEATHER SERVICE HONOLULU HI
100 AM HST FRI MAR 06 2015

THIS IS AN AUTOMATED REPORT THAT HAS NOT BEEN QUALITY CONTROLLED.

NOTE..."FAIR" INDICATES FEW OR NO CLOUDS BELOW 12,000 FEET WITH NO
SIGNIFICANT WEATHER AND/OR OBSTRUCTIONS TO VISIBILITY.

* - THESE SITES REPORT LIMITED FIELDS

HIZ001>004-061200-
KAUAI-NIIHAU-

CITY           SKY/WX    TMP DP  RH WIND       PRES   REMARKS
LIHUE APT      MOCLDY    70  57  64 N20       29.99S
PORT ALLEN*      N/A     63 N/A N/A NE3         N/A
POIPU*           N/A     68 N/A N/A N8G22       N/A
PRINCEVILLE*     N/A     66 N/A N/A MISG        N/A
KOKOLE POINT*  NOT AVBL
MOLOAA DAIRY*  NOT AVBL
WAIMEA HTS*    NOT AVBL
PUU OPAE*        N/A     57  48  72 NE6G18      N/A
PUU LUA*       NOT AVBL
MAKAHA RIDGE*  NOT AVBL
$$

HIZ005>011-061200-
OAHU-

CITY           SKY/WX    TMP DP  RH WIND       PRES   REMARKS
HONOLULU       PTCLDY    65  60  84 N10G21    29.94F
KALAELOA       PTCLDY    67  58  72 NE10G23   29.95S
KANEOHE MCB    CLOUDY    69  61  75 N22       29.95F
WHEELER FIELD  FAIR      63  59  87 N9        29.96F
BELLOWS*         N/A    N/A N/A N/A N16G25      N/A
KAHUKU*          N/A    N/A N/A N/A N5G14       N/A
WHEELER*       NOT AVBL
WAIANAE HARBOR NOT AVBL
DILLINGHAM*      N/A     68  57  68 MISG        N/A
KAHUKU TRN*      N/A     66  55  68 N10G21      N/A
KAWAILOA*        N/A     61  59  94 N10G17      N/A
KII*             N/A     70  59  68 N17G24      N/A
MAKUA RANGE*     N/A     68  57  68 E14G29      N/A
OAHU FOREST NW   N/A     57  14  18 CALM        N/A
SCHOFIELD BRK*   N/A     63  59  88 MISG        N/A
SCHOFIELD S*   NOT AVBL
WAIANAE VLY*     N/A     63  57  82 N12G26      N/A
KUAOKALA*        N/A     64  54  68 CALM        N/A
HONOULIUULI*   NOT AVBL
MOKUOLOE IS*     N/A    N/A N/A N/A MISG        N/A
PALEHUA*         N/A     70  57  64 CALM        N/A
WAIAWA PHB*    NOT AVBL
$$

HIZ012>013-061200-
MOLOKAI-

CITY           SKY/WX    TMP DP  RH WIND       PRES   REMARKS
MOLOKAI AIRPT  LGT RAIN  63  63 100 N15G26    29.94F
KALAUPAPA      NOT AVBL
MAKAPULAPAI*     N/A     66  64  94 N14         N/A
MOLOKAI 1*       N/A     57  57 100 N12G26      N/A
PUU ALII*        N/A     53  53 100 SE2G10      N/A
$$

HIZ016-061200-
KAHOOLAWE-

CITY           SKY/WX    TMP DP  RH WIND       PRES   REMARKS
KAHOOLAWE*       N/A     63 N/A N/A NE13G20     N/A
HAKIOAWA*        N/A     64  64  99 MISG      30.32F
HONOKANAIA*      N/A     68  62  82 N17G28    29.92F
KANELOA*         N/A     68  64  88 MISG      29.12F
KEALIALALO*    NOT AVBL
LUA MAKIKA*    NOT AVBL
$$

HIZ014>015-061200-
LANAI-

CITY           SKY/WX    TMP DP  RH WIND       PRES   REMARKS
LANAI CITY     MOCLDY    64  63  97 NE20G31   29.95S
LANAI 1*         N/A     63  63 100 NE18G32     N/A
$$

HIZ017>028-061200-
MAUI-

CITY           SKY/WX    TMP DP  RH WIND       PRES   REMARKS
KAHULUI        CLOUDY    66  63  90 E7        29.94F
KAPALUA-W MAUI NOT AVBL
HANA AIRPORT   LGT RAIN  64  64 100 W6        29.94F
HANA*            N/A     64 N/A N/A SW3         N/A
HALEAKALA SUMM   N/A     32  32 100 SE2G21      N/A
MAALAEA BAY*   NOT AVBL
HALEAKALA*     NOT AVBL
KAUPO GAP*       N/A     54  54 100 W1G8        N/A
KULA 1*          N/A     46  43  87 E5          N/A
$$

HIZ023>026-061200-
BIG ISLAND OF HAWAII COAST AND LOWER SLOPES-

CITY           SKY/WX    TMP DP  RH WIND       PRES   REMARKS
KAILUA KONA    CLOUDY    71  63  75 N8        29.87F
HILO           LGT RAIN  68  66  93 NW7       29.90F
HONOKAA*       NOT AVBL
KAWAIHAE MWT*    N/A     73 N/A N/A E5          N/A
KAWAIHAE*        N/A     73 N/A N/A NE2         N/A
SOUTH POINT*     N/A     66 N/A N/A NW1         N/A
UPOLU AIRPORT*   N/A    N/A N/A N/A NE21G26     N/A
KAMUELA*       CLOUDY    61  59  94 N12       29.95F
HAKALAU*         N/A     48  48 100 VRB2        N/A
KALOKO-HONOKO*   N/A     70  63  78 VRB2      29.85F
PALI 2*          N/A     61  57  88 VRB3        N/A
KEALAKOMO*       N/A    N/A N/A N/A N13G26      N/A
KAUPULEHU*       N/A     64  55  72 E3G12       N/A
KAPAPALA*        N/A     60  58  94 CALM        N/A
LOWER KAHUKU*    N/A     55  55 100 NW2         N/A
PUHE CS*         N/A     72  63  73 E3          N/A
PUHO CS*         N/A     69  60  74 E2          N/A
PTA KEAMUKU*     N/A     57  54  88 CALM        N/A
WAIKOLOA*        N/A     70  59  68 NE12G21     N/A
$$

HIZ027>028-061200-
BIG ISLAND OF HAWAII INTERIOR AND SUMMMITS-

CITY           SKY/WX    TMP DP  RH WIND       PRES   REMARKS
BRADSHAW FIELD CLOUDY    46  43  91 N2        30.15F
MK VISITOR CEN NOT AVBL
MAUNA KEA*       N/A     27 -15  15 NW45        N/A  WCI   7
MAUNA LOA*       N/A     36   3  25 MISG        N/A
MAUNA LOA 1*   NOT AVBL
PTA KIPUKA*      N/A     48  48 100 S6          N/A
PTA RANGE 17*    N/A     48  46  93 E1G7        N/A
PTA WEST*        N/A     50  48  93 SE8         N/A
NENE CABIN*      N/A     45  39  81 N3          N/A
AHUMOA*          N/A     46  41  81 E7          N/A
PTA PORTABLE*  NOT AVBL
PUU MALI*      NOT AVBL
$$

HIC003-061200-
NORTHWEST ISLANDS-

CITY           SKY/WX    TMP DP  RH WIND       PRES   REMARKS
MIDWAY ISLAND  MOCLDY    61  54  77 E20G29    30.37S
MIDWAY NOS*    NOT AVBL
FRENCH FRIGATE NOT AVBL
$$

PHZ110>124-180-061200-
BUOY REPORTS

STATION/POSITION TIME  TEMP    WIND        PRES    WAVE   SWELL
                       AIR SEA DIR/SP/G            HT/PER HT/DIR
                 (UTC) (F)     (DEG/KT/KT) (MB)    (FT/S) (FT/D)
BUOY 51001       NOT AVBL
BUOY 51101       1100   66 72   40/ 23/ 27 1018.6F  10/ 9   7/ 40
BUOY 51100       1100           30/ 19       N/A
BUOY 51003       1100   74 78   50/ 19/ 23 1013.2F  10/ 9   7
BUOY 51004       1019   75 78   50/ 14/ 16 1009.7F   7/ 8   5/ 60
BARBERS PT BUOY  NOT AVBL
WAIMEA BAY BUOY  1100      76                N/A     9/ 9   3/350
KAILUA BAY BUOY  1100      76                N/A     8/10   3/ 30
LANAI BUOY       1100      76                N/A     3/13   2/230
BARBERS PT 2     1100      77                N/A     3/13   2/210
PAUWELA MAUI     1100      74                N/A     9/10   5/350
HILO             1100      77                N/A     9/ 9   5/360
KANEOHE BAY BUOY 1100      76                N/A     9/ 9   3/360
HANALEI KAUAI    NOT AVBL
KAHULUI HARBOR   1100   67 75   50/  6/  9 1013.3F
HONOLULU HARBOR  1100   69 76  330/  5/ 12 1013.5F
KILO NALU        NOT AVBL
HILO HARBOR      1100   68 76  310/  7/  8 1011.8F
MOKUOLOE         1100   70 75   10/ 16/ 19 1014.8F
NAWILIWILI       1100   67 78  340/  7/ 12 1015.2F
WHOTS BUOY       NOT AVBL
BUOY 51028       NOT AVBL
$$

......................KEY........................................
  SKY/WX - SKY CONDITIONS/PRESENT WEATHER
  TMP    - TEMPERATURE IN FAHRENHEIT
  DWPT   - DEWPOINT IN FAHRENHEIT
  RH     - RELATIVE HUMIDITY IN PERCENT
  WIND   - DIRECTION AND SPEED /MPH FOR ISLANDS...KTS FOR BUOYS/
  PRES   - MEAN SEA LEVEL PRESSURE IN INCHES OF HG
  VSB    - VISIBILITY IN MILES
  HX     - HEAT INDEX
  WCI    - WIND CHILL INDEX
  VRB    - VARIABLE WIND DIRECTION
  N/A    - NOT AVAILABLE


USA.gov is the U.S. government's official web portal to all federal, state and local government web resources and services.